カタログに戻る

USA 99

運用中軍事GEO
NORAD 22988·PAYLOAD·🇺🇸 United States

打ち上げ Feb 7, 1994 から Cape Canaveral Space Force Station

Loading…

TLE

最新Source: Space-Track

元期: Sep 14, 2026, 12:11 UTC

1 22988U 94009A   26257.50810311 -.00000004  00000-0  00000-0 0  9997
2 22988  17.7584  26.7742 0002765 205.7677 170.2950  0.98721869 33836

AllMySatでUSA 99をリアルタイム追跡

Download on the App Store